Sigil TimeFrame

99 Gods Updated: 2020-03-28 11:35:01
NameTime LeftWindow Opens
In TimeFrame
Jade Dragonite 1d 20:162020-03-26 20:02:00
Great Lord Ganeshan 1d 13:402020-03-27 02:38:00
Noxious Slug 1d 10:492020-03-27 05:29:00
Beast of Cards 1d 09:042020-03-27 07:14:00
Old World Drake 1d 09:022020-03-27 07:16:00
Skybrine The Inescapable 1d 01:412020-03-27 14:37:00
Ag Nabak the Abomination 0d 20:322020-03-27 19:46:00
The Emerald Assassin 0d 20:282020-03-27 19:50:00
Lacuste of the Swarm 0d 17:212020-03-27 22:57:00
Gorganus of the Wood 0d 16:002020-03-28 00:18:00
Samatha Dark-Soul 0d 15:452020-03-28 00:33:00
Anvilfist 0d 13:182020-03-28 03:00:00
Archdevil Yirkon 0d 10:522020-03-28 05:26:00
Straya, the Underworld Ruler 0d 10:042020-03-28 06:14:00
Balerion, Dragon of Dread 0d 07:012020-03-28 09:17:00
Zertan, The Collector 0d 06:402020-03-28 09:38:00
Nar Zhul, Slayer of All 0d 06:032020-03-28 10:15:00
Karvaz, Lord of Alsayic 0d 05:522020-03-28 10:26:00
Anguish 0d 05:512020-03-28 10:27:00
Traxodon the Plaguebringer 0d 05:222020-03-28 10:56:00
Sarcrina the Astral Priestess 0d 04:292020-03-28 11:49:00
Lord Suka 0d 03:362020-03-28 12:42:00
Wanhiroeaz the Devourer 0d 02:192020-03-28 13:59:00
Hackerphage, Protector of the Gateway 0d 02:122020-03-28 14:06:00
Lord Narada 0d 01:382020-03-28 14:40:00
Threk, King of Lords 0d 01:162020-03-28 15:02:00
Raiyar, the Shadow Master 0d 01:062020-03-28 15:12:00
Not In TimeFrame
Lady Chaos, Queen of the Abyss 0d 01:042020-03-28 17:23:00
Akkel the Enflamed Warrior 0d 02:402020-03-28 18:59:00
Synge, The Red Dragon 0d 02:522020-03-28 19:11:00
Rotborn, Eater of the Dead 0d 02:522020-03-28 19:11:00
Lord Varan 0d 04:292020-03-28 20:48:00
Vitkros, Hydra of the Deep 0d 05:552020-03-28 22:14:00
Tylos, The Lord Master 0d 06:462020-03-28 23:05:00
Garland, The Lord Keeper 0d 08:122020-03-29 00:31:00
Gnorb 0d 09:032020-03-29 01:22:00
Mistress of the Sword 0d 09:062020-03-29 01:25:00
Ebliss, Fallen Angel of Despair 0d 09:082020-03-29 01:27:00
Jazzmin, Maiden of Vitality 0d 09:112020-03-29 01:30:00
Bolkor, the Holy Master 0d 09:182020-03-29 01:37:00
King Ashnar, Lord of the Unliving 0d 09:232020-03-29 01:42:00
Viserion, the Necrodragon 0d 09:302020-03-29 01:49:00
Crane 0d 09:382020-03-29 01:57:00
Baron Mu, Dark Rider of the Undead 0d 13:002020-03-29 05:19:00
Freezebreed, The Frozen Manipulator 0d 13:082020-03-29 05:27:00
Keeper of Nature 0d 14:582020-03-29 07:17:00
Melt Bane, The Forbidden Demon Dragon 0d 15:082020-03-29 07:27:00
Dlanod, the Crazed Chancellor 0d 15:172020-03-29 07:36:00
Lady Ariella 0d 15:232020-03-29 07:42:00
Windstrike The Vile 0d 15:522020-03-29 08:11:00
Animated Captain 0d 15:562020-03-29 08:15:00
Volgan the Living Ironbark 0d 17:312020-03-29 09:50:00
Pinosis 0d 21:112020-03-29 13:30:00
Quiver, The Renegade 0d 21:222020-03-29 13:41:00
Amalgamated Apparition 0d 21:382020-03-29 13:57:00
Nayark the Mummified Sorcerer 0d 23:122020-03-29 15:31:00
Brutalitar, Lord of the Underworld 0d 23:512020-03-29 16:10:00
Smoot the Yeti 1d 00:182020-03-29 16:37:00
Crolvak, the Fire Master 1d 00:222020-03-29 16:41:00
Bloodchill the Grizzly 1d 01:372020-03-29 17:56:00
Detox 1d 01:412020-03-29 18:00:00
Sigil, Lich of Woe 1d 01:432020-03-29 18:02:00
Hyrak, Bringer of Nightmares 1d 03:092020-03-29 19:28:00
Tsort 1d 03:202020-03-29 19:39:00
Jorun the Blazing Swordsman 1d 03:322020-03-29 19:51:00
Rancid, Lord of Thugs 1d 03:342020-03-29 19:53:00
Ancient Magus Tarkin 1d 04:092020-03-29 20:28:00
Nessam 1d 06:182020-03-29 22:37:00
Ganja the Stone Golem 1d 06:292020-03-29 22:48:00
Terrance, Rebel of Rallis 1d 07:412020-03-30 00:00:00
Crantos, Defender of Ultimation 1d 08:052020-03-30 00:24:00
Zikkir the Dark Archer 1d 08:272020-03-30 00:46:00
Shadow 1d 10:562020-03-30 03:15:00
Dreg nor, Keeper of the Infernal Essence 1d 14:362020-03-30 06:55:00
Sylvanna TorLai 1d 15:202020-03-30 07:39:00
Numerocure, The Black Messenger of Evil 1d 17:142020-03-30 09:33:00
Slashbrood, Devourer of the Blackness 1d 17:562020-03-30 10:15:00
Lord Sibannac 1d 20:292020-03-30 12:48:00
Murderface 1d 23:112020-03-30 15:30:00
Esquin, the Kinetic Master 2d 02:452020-03-30 19:04:00
Howldroid, Tormentor of the Pit 2d 04:282020-03-30 20:47:00
Kro Shuk, Doomslayer 2d 05:102020-03-30 21:29:00
Lord Xordam 2d 06:532020-03-30 23:12:00
Xynak, the Arcane Master 2d 13:592020-03-31 06:18:00
Skarthul the Avenged 2d 18:512020-03-31 11:10:00
Felroc, Overseer of Hellfire 3d 03:412020-03-31 20:00:00
Murfax, Beast of the Caves 3d 10:152020-04-01 02:34:00
Ormsul the Putrid 3d 10:372020-04-01 02:56:00
Varsanor, Master of Darkness 3d 11:232020-04-01 03:42:00
Dexor, Victor of Veldara 3d 14:122020-04-01 06:31:00
Grivvek, Protector of the Brood 3d 16:112020-04-01 08:30:00
Q-SEC Commander 3d 21:362020-04-01 13:55:00
Kretok, Descendant of Nature 4d 09:202020-04-02 01:39:00
Gregov, Knight of the Woods 4d 22:132020-04-02 14:32:00
Nafir, God of Desolation 5d 02:532020-04-02 19:12:00
Emperor Neudeus, Controller of the Universe 5d 03:592020-04-02 20:18:00
Out of TimeFrame
Shaik, Servant of Arkron 120d 02:092019-11-29 14:09:00
Rook, Hand of Arkron 118d 06:252019-12-01 09:53:00
Thanox, Balancer of Chaos 1d 07:532020-03-27 08:25:00